LVWPG SCJO-SAEZ

Flight info

Callsign LVWPG
Flight time N/A
Altitude 27000
Route PUKAN2D PUKAN DCT OSEKO UZ127 OSA UW73 IRASU DCT VALOS VALOS8V
Aircraft B350/L-SBDFGR/S

Departure

Time 2026-05-07 15:23
Airport Cañal Bajo Carlos Hott Siebert Airport (SCJO)

Arrival

Time N/A
Airport Ezeiza International Airport - Ministro Pistarini (SAEZ)
Time Latitude Longitude Altitude Speed Heading
2026-05-07 14:43 -40.60547 -73.06146 195 ft 0 kts 67°
2026-05-07 14:53 -40.60548 -73.06146 187 ft 0 kts 67°
2026-05-07 14:59 -40.60548 -73.06147 187 ft 0 kts 67°
2026-05-07 15:14 -40.60548 -73.06148 193 ft 0 kts 67°
2026-05-07 15:18 -40.60562 -73.06140 199 ft 7 kts 238°
2026-05-07 15:18 -40.60616 -73.06164 189 ft 11 kts 185°
2026-05-07 15:18 -40.60707 -73.06179 186 ft 15 kts 188°
2026-05-07 15:19 -40.60811 -73.06198 185 ft 13 kts 188°
2026-05-07 15:19 -40.60891 -73.06202 185 ft 13 kts 169°
2026-05-07 15:19 -40.60988 -73.06154 185 ft 15 kts 155°
2026-05-07 15:19 -40.61088 -73.06090 186 ft 17 kts 155°
2026-05-07 15:20 -40.61203 -73.06021 186 ft 19 kts 157°
2026-05-07 15:20 -40.61325 -73.05958 190 ft 18 kts 157°
2026-05-07 15:20 -40.61444 -73.05889 191 ft 19 kts 157°
2026-05-07 15:20 -40.61554 -73.05828 193 ft 15 kts 155°
2026-05-07 15:21 -40.61656 -73.05768 192 ft 16 kts 156°
2026-05-07 15:21 -40.61757 -73.05712 190 ft 13 kts 166°
2026-05-07 15:21 -40.61811 -73.05699 197 ft 6 kts 117°
2026-05-07 15:21 -40.61805 -73.05663 190 ft 1 kts
2026-05-07 15:22 -40.61792 -73.05665 190 ft 8 kts 341°
2026-05-07 15:22 -40.61607 -73.05780 194 ft 63 kts 336°
2026-05-07 15:22 -40.60992 -73.06153 208 ft 125 kts 334°
2026-05-07 15:22 -40.60096 -73.06660 312 ft 157 kts 334°
2026-05-07 15:23 -40.59027 -73.07286 618 ft 176 kts 332°
2026-05-07 15:23 -40.58095 -73.08295 1084 ft 177 kts 301°
2026-05-07 15:23 -40.57773 -73.09810 1649 ft 172 kts 265°
2026-05-07 15:23 -40.58255 -73.11156 2367 ft 165 kts 221°
2026-05-07 15:24 -40.59414 -73.11722 2440 ft 195 kts 182°
2026-05-07 15:24 -40.60661 -73.11191 2975 ft 194 kts 154°
2026-05-07 15:24 -40.61823 -73.10230 3477 ft 193 kts 148°
2026-05-07 15:24 -40.62758 -73.09009 4070 ft 193 kts 121°